リニア彗星

194P/LINEAR (2008)

English version
Home page
Updated on October 12, 2008

---------------------------------------------------------------------

・ プロフィール

符号 194P/2007 W2
検出日 2007年11月17日
検出光度 19.5等
検出者 L. Buzzi and F. Luppi (Varese, Italy)

・ 写真集

・ 軌道要素

                    Epoch = 2008 Feb. 24.0 TT
     T = 2008 Feb. 26.1914 TT         Peri. = 130.6410
     e = 0.574210                     Node  = 352.0642  2000.0
     q = 1.708753 AU                  Incl. =  11.1181
       a =  4.013132 AU    n = 0.1225967    P =   8.039 years

・ 光度変化

        m1 = 12.5 + 5 logΔ + 20.0 log r(t - 15)

---------------------------------------------------------------------

軌道要素は、IAUC 8900に掲載されたものです。
光度グラフはComet for Windowsで作成したものです。

---------------------------------------------------------------------

Copyright(C) Seiichi Yoshida (comet@aerith.net). All rights reserved.